Dinard-Pleurtuit-Saint-Malo Airport

Jump to: basic info | weather | frequencies | runways | comments

Related pages: nearby airports | nearby navaids | notams | map

Basic information (top)

Codes: DNR LFRD
Location: lon 48.587700, lat -2.079960, elev 219 ft / 67 m msl
Status: medium_airport
Scheduled airline service: yes
Links: Wikipedia Mobile

Weather (top)

Current conditions (rec'd 2014/12/19 03:00Z):

LFRD 190300Z AUTO 25015KT 9999 OVC018 12/09 Q1020

Airport forecast (rec'd 2014/12/18 00:15Z):

TAF LFRD 182300Z 1900/1924 23015G25KT 9999 BKN020 
      TEMPO 1900/1906 4000 DZ BKN010 
      BECMG 1906/1908 5000 RA BKN012 
      TEMPO 1906/1914 3000 RA BKN005 
      BECMG 1910/1912 29013KT 
      BECMG 1912/1914 9999 NSW BKN020

Frequencies (top)

Verify before use: may be inaccurate or out of date.

ATIS: 124.575 MHz (DINARD ATIS)
TWR: 120.15 MHz (DINARD TWR)

Runways (top)

12/30: 4,708 x 148 ft (1,435 x 45 m) — paved — not lighted — threshold 30 displaced 476 ft (145 m)

17/35: 7,218 x 148 ft (2,200 x 45 m) — paved — lighted

Latest comments (top)

No comments yet for Dinard-Pleurtuit-Saint-Malo Airport

More... (top)

See also NOTAMs and nearby airports and navaids, or visit the Dinard-Pleurtuit-Saint-Malo Airport page at the main OurAirports website..